Regional Weather Roundup
Issued by NWS

Home | Current Version | Previous Version | Text Only | Print | Product List | Glossary On
Versions: 1 2 3 4 5 6 7 8 9 10 11 12 13 14 15 16 17 18 19 20 21 22 23 24 25 26 27 28 29 30 31 32 33 34 35 36 37 38 39 40 41 42 43 44 45 46 47 48 49 50
000
ASUS44 KMEG 251610
RWRTN
TENNESSEE HOURLY STATE WEATHER ROUNDUP
NATIONAL WEATHER SERVICE MEMPHIS TN
1100 AM CDT THU AUG 25 2016

TNZ002-004-019-021-049-052-054-088>092-251700-
WEST TENNESSEE

CITY           SKY/WX    TMP DP  RH WIND       PRES   REMARKS
MEMPHIS INTL   MOSUNNY   91  75  59 SW7       30.14S HX 101
NWS MEMPHIS      N/A     90 N/A N/A MISG        N/A
JACKSON        MOSUNNY   89  76  65 VRB3      30.15S HX 100
DYERSBURG      SUNNY    N/A N/A N/A MISG        N/A
UNION CITY     SUNNY     88  79  74 VRB3      30.12S HX 102
PARIS          SUNNY     88  75  66 CALM      30.15S HX  97
LEXINGTON      SUNNY     88  75  66 SW3       30.15S HX  97
$$

TNZ008-025-027-028-033-062-065-066-251700-
NORTH MIDDLE TENNESSEE

CITY           SKY/WX    TMP DP  RH WIND       PRES   REMARKS
NASHVILLE      MOSUNNY   91  73  55 W5        30.16F HX  99
CLARKSVILLE    MOSUNNY   88  75  65 CALM      30.14S HX  97
SMYRNA         MOSUNNY   88  73  62 MISG      30.16S HX  96
COOKEVILLE     SUNNY     88  75  66 S3        30.18F HX  97
CROSSVILLE     PTSUNNY   81  71  71 SW3       30.24F
$$

TNZ061-075-076-078-094-096-097-251700-
SOUTH MIDDLE TENNESSEE

CITY           SKY/WX    TMP DP  RH WIND       PRES   REMARKS
FAYETTEVILLE   SUNNY     86  75  70 VRB6      30.19F HX  95
TULLAHOMA      MOSUNNY   86  72  62 VRB3      30.21S HX  92
WINCHESTER     MOSUNNY   88  75  66 W3        30.20S HX  97
MCMINNVILLE    SUNNY     88  77  70 SW6       30.20S HX 100
COLUMBIA       MOSUNNY   90  82  79 S7        30.15F HX 111
SHELBYVILLE    SUNNY     90  79  70 SW3       30.19S HX 105
$$

TNZ017-018-042-046-047-251700-
NORTHEAST TENNESSEE

CITY           SKY/WX    TMP DP  RH WIND       PRES   REMARKS
TRI CITIES     MOSUNNY   81  71  71 S6        30.23F
ELIZABETHTON   PTSUNNY   81  72  74 W5        30.23F
$$

TNZ012-013-036-069-073-074-251700-
CENTRAL EAST TENNESSEE

CITY           SKY/WX    TMP DP  RH WIND       PRES   REMARKS
KNOXVILLE      MOSUNNY   86  69  56 SW10      30.19F HX  90
OAK RIDGE      SUNNY     85  71  63 S7        30.21  HX  90
MORRISTOWN     MOSUNNY   84  72  65 SW6       30.21F
$$

TNZ083-085-099-251700-
SOUTHEAST TENNESSEE

CITY           SKY/WX    TMP DP  RH WIND       PRES   REMARKS
CHATTANOOGA    MOSUNNY   86  70  58 SW8       30.19F HX  90
$$

SKY/WX REPORTED AS FAIR MEANS FEW OR NO CLOUDS BELOW
12 THOUSAND FEET.





USA.gov is the U.S. government's official web portal to all federal, state and local government web resources and services.